Regional Weather Roundup
Issued by NWS Cleveland, OH

Home | Current Version | Previous Version | Text Only | Print | Product List | Glossary Off
Versions: 1 2 3 4 5 6 7 8 9 10 11 12 13 14 15 16 17 18 19 20 21 22 23 24 25 26 27 28 29 30 31 32 33 34 35 36 37 38 39 40 41 42 43 44 45 46 47 48 49 50

000
ASUS41 KCLE 291100
RWRCLE
OHIO REGIONAL WEATHER ROUNDUP
NATIONAL WEATHER SERVICE WILMINGTON, OH
700 AM EDT TUE JUL 29 2014

NOTE: "FAIR" INDICATES FEW OR NO CLOUDS BELOW 12,000 FEET WITH NO
SIGNIFICANT WEATHER AND/OR OBSTRUCTIONS TO VISIBILITY.

OHZ001>008-015>018-024>027-034-035-043-044-291200-
   NORTHWEST OHIO

CITY           SKY/WX    TMP DP  RH WIND       PRES   REMARKS
DEFIANCE       CLEAR     49  46  90 CALM      30.03R
FINDLAY        CLEAR     50  47  89 W3        30.02R
TOLEDO EXPRESS CLEAR     50  47  89 W5        30.02R
TOLEDO METCALF CLEAR     51  46  83 W3        30.02R
LIMA           CLEAR     51  49  92 NW5       30.03R
$$

OHZ009>014-019>023-028>033-038-089-291200-
   NORTHEAST OHIO

CITY           SKY/WX    TMP DP  RH WIND       PRES   REMARKS
CLE-HOPKINS    CLOUDY    56  50  80 SW6       29.99R
CLE-LAKEFRONT  CLOUDY    63  48  58 N13       29.96R
CUY CO. ARPT   CLOUDY    61  52  72 NW6       29.97
LORAIN-ELYRIA  CLOUDY    57  50  77 W6        29.99R
ASHTABULA      CLOUDY    59  50  72 NW6       29.96R
AKRON-CANTON   CLOUDY    53  49  86 W6        29.98R
WOOSTER        NOT AVBL
MANSFIELD      CLEAR     52  48  86 W5        30.00R
YOUNGSTOWN     CLOUDY    55  49  80 CALM      29.96R
$$

OHZ042-051>053-060>062-070>072-077>081-291200-
  SOUTHWEST OHIO

CITY           SKY/WX    TMP DP  RH WIND       PRES   REMARKS
CINC-COVINGTON PTCLDY    50  47  89 W5        30.03R
CINC-LUNKEN    CLEAR     52  49  89 CALM      30.04R
HAMILTON       CLEAR     51  50  96 CALM      30.04R
DAYTON         NOT AVBL
WRIGHT-PAT AFB MOCLDY    55  53  91 N7        30.02S
DAYTON GENERAL PTCLDY    53  51  93 N7        30.02R
WILMINGTON     PTCLDY    52  50  93 N8        30.00S
$$

OHZ036-037-039>041-045>050-054>059-063>069-073>076-082>088-291200-
  CENTRAL AND SOUTHEAST OHIO

CITY           SKY/WX    TMP DP  RH WIND       PRES   REMARKS
COLUMBUS       CLOUDY    59  53  80 N6        30.00R
OSU AIRPORT    MOCLDY    56  54  93 CALM      30.00R
BOLTON FIELD   NOT AVBL
RICKENBACK AFB NOT AVBL
NEWARK         CLOUDY    55  52  89 CALM      30.00R
MARION         CLOUDY    54  51  90 NW5       30.02R
LANCASTER      CLOUDY    58  55  90 CALM      30.00R
ZANESVILLE     PTCLDY    54  52  93 CALM      29.99R
NEW PHILLY     PTCLDY    51  49  92 CALM      29.99R
$$



USA.gov is the U.S. government's official web portal to all federal, state and local government web resources and services.